User: anonymous   Login
Location: Unspecified
(0.0000°N, 0.0000°E)
Time: 18:13:04
(UTC+00:00)
Language:

STARLINK-2039 - Orbit

View from above orbital plane
View from above orbital plane
View from above satellite
View from above satellite

Ground track
Ground track

The orbit is defined by the following mean orbital elements,

1 47655U          26145.50917205 +.00000000 +00000-0 +12976-3 0 00005
2 47655  53.1599  67.7570 0001401  85.1994 274.9168 15.31703413    00
Epoch (UTC): 25 May 2026 12:13:12
Eccentricity: 0.0001401
inclination: 53.1599°
perigee height: 470 km
apogee height: 472 km
right ascension of ascending node: 67.7570°
argument of perigee: 85.1994°
revolutions per day: 15.31703413
mean anomaly at epoch: 274.9168°

The dashed part of the orbit path shows where the satellite is in the earth's shadow,  

DLR